ATLAS 5 CENTAUR DEB, 46604

Orbit data source: Space-Track

ATLAS 5 CENTAUR DEB, 46604 is space debris in HEO originally from a launch on Wed, 17 Oct 2018 UTC launched from the Air Force Eastern Test Range (AFETR). Debris objects in space refer to the collection of defunct objects orbiting the Earth. Examples of debris include non-operational satellites, rocket bodies, and fragments generated from explosions, collisions, or faulty payload assembly.

Loading next visibility...
Identifier
46604, 2018-079CC
Orbit
HEO
Country
Flag of USUS
Related business
Flag of USUnited Launch Alliance/Lockheed Martin (US)
Manufacturer
ULA Decatur
Mission
Spacecraft
Bus & Motor
Unknown
Mass
Unknown
Launch date (UTC)
2018-10-17 (8 years ago)
Launch vehicle
Unknown
Launch site
Air Force Eastern Test Range (AFETR)
Object type
Payload
Rocket body
Debris
Shape & HBR
Unknown shape, 1.1 m
Radar Cross Section
RCS unknown

Expand to show TLE details & history
Last TLE update: 1 day ago

TLE from 1 day ago
0 ATLAS 5 CENTAUR DEB
1 46604U 18079CC  26127.04554840 -.00000072  00000-0  00000-0 0  9993
2 46604  13.4110  56.6413 4598827 263.6962  43.9184  1.74519836 41181
Epoch: 2026-05-07T01:05Z
TLE epoch observation values (Epoch: 2026-05-07T01:05:35.381Z)
Latitude
0.00002°
Longitude
175.25532°
Altitude
17,832.768 km
Speed
4.387 km/s
True Right ascension
03h 46m 12s
True Declination
0° 00' 00"
Sunlit
Object was in daylight at epoch
Visualization orbit readout
Latitude
Unknown
Longitude
Unknown
Altitude
Unknown
Speed
Unknown
Apparent Right ascension
Unknown
Apparent Declination
Unknown
Sunlit
N/A
Visualization observer readout
Local Sidereal Time
11:42:01
Azimuth
Unknown
Elevation
Unknown
Doppler factor
Unknown
Orbital elements
Apogee altitude
36,167.312 km
Perigee altitude
9,362.534 km
Semi-major axis
29,143.06 km
Eccentricity
0.45988
Inclination
13.411°
RAAN
56.6413°
Arg. of periapsis
263.6962°
True anomaly
96.3641°
Mean anomaly
43.9184°
Eccentric anomaly
68.42094°
Mean motion
0.43626 °/min
Orbital period
825.21 mins
BSTAR
0
Loading maneuver chart data...
Computing Atmospheric mass density...

Documentation

Showing up to 5 results
|